Вернуться в каталог

CZ-6A DEB

АктивенSSO
NORAD 55008·DEBRIS·🇨🇳 China

Запущен Nov 11, 2022 с Taiyuan Satellite Launch Center

Loading…

Ближайшие Пролёты (ближайшие 24 часа)

TLE

СвежийSource: Space-Track

Эпоха: Sep 14, 2026, 05:49 UTC

1 55008U 22151UY  26257.24245742  .00000157  00000-0  10938-3 0  9998
2 55008  98.8499 261.4601 0042395  51.6502 308.8467 14.11592382197525

Отслеживайте CZ-6A DEB в реальном времени с AllMySat

Download on the App Store